Location: Brno
(49.2000°N, 16.6330°E)
Time: 01:43:41
(UTC+02:00)

Cosmos 332 Rocket - Visible Passes

Search period start: 19 September 2014 00:00
Search period end: 29 September 2014 00:00
Orbit: 685 x 707 km, 74.0° (Epoch: 18 September)

Date Brightness Start Highest point End Pass type
(mag) Time Alt. Az. Time Alt. Az. Time Alt. Az.
19 Sep 6.4 00:30:13 10° NNW 00:31:21 17° N 00:31:21 17° N visible
19 Sep 6.3 23:32:01 10° N 23:33:29 16° NNE 23:33:29 16° NNE visible
20 Sep 6.7 01:12:02 10° NNW 01:12:13 11° NNW 01:12:13 11° NNW visible
20 Sep 6.4 22:34:44 10° NNE 22:35:39 11° NNE 22:35:39 11° NNE visible
21 Sep 6.5 00:13:21 10° NNW 00:14:22 16° NNW 00:14:22 16° NNW visible
21 Sep 6.3 23:15:06 10° N 23:16:33 17° N 23:16:33 17° N visible
22 Sep 6.8 00:55:14 10° NNW 00:55:16 10° NNW 00:55:16 10° NNW visible
22 Sep 6.3 22:17:35 10° NNE 22:18:44 12° NNE 22:18:44 12° NNE visible
22 Sep 6.5 23:56:30 10° NNW 23:57:28 16° NNW 23:57:28 16° NNW visible
23 Sep 6.2 22:58:11 10° N 22:59:40 17° N 22:59:40 17° N visible
24 Sep 6.2 22:00:30 10° N 22:01:54 13° NNE 22:01:54 13° NNE visible
24 Sep 6.5 23:39:38 10° NNW 23:40:38 16° NNW 23:40:38 16° NNW visible
25 Sep 6.1 22:41:16 10° N 22:42:52 18° N 22:42:52 18° N visible
26 Sep 6.1 21:43:27 10° N 21:45:07 14° NNE 21:45:07 14° NNE visible
26 Sep 6.4 23:22:47 10° NNW 23:23:51 17° NNW 23:23:51 17° NNW visible
27 Sep 6.0 22:24:21 10° N 22:26:07 20° N 22:26:07 20° N visible
28 Sep 6.0 21:26:26 10° N 21:28:24 16° NNE 21:28:24 16° NNE visible
28 Sep 6.4 23:05:56 10° NNW 23:07:08 18° NNW 23:07:08 18° NNW visible
